Location: Newark
(54.9353°N, 24.1167°E)
Time: 09:04:00
(UTC+00:00)

Envisat - Pass Details

Date: 30 September 2020
Orbit: 764 x 766 km, 98.1° (Epoch: 23 October)

Event Time Altitude Azimuth Distance (km) Brightness Sun altitude
Rises 03:39:34 0° 21° (NNE) 3,247 6.6 -7.3°
Reaches altitude 10° 03:42:11 10° 33° (NNE) 2,315 6.1 -6.9°
Maximum altitude 03:46:36 29° 92° (E) 1,394 5.4 -6.3°
Drops below altitude 10° 03:50:57 10° 152° (SSE) 2,299 5.8 -5.7°
Sets 03:53:33 0° 164° (SSE) 3,221 6.4 -5.3°
